Wind_Speed
28 28 28 26 26 27 30 37 39 37 35 35 33 30 31 28 29 29 27 27 27 26 26 25 26 25 24 25 25 25 27 29 32 31 30 32 36 39 39 40 40 42 45 42 41
29 32 33 31 30 30 31 32 36 39 40 37 39 35 33 32 32 31 31 30 30 28 29 29 29 28 27 28 28 29 30 32 32 32 31 32 36 41 39 37 38 40 37 37 39
26 29 33 33 32 31 32 33 34 36 36 38 38 38 34 33 33 32 32 32 31 30 30 29 29 29 29 31 31 32 34 34 34 34 33 33 35 39 39 37 38 37 36 37 37
26 29 30 33 33 33 33 33 33 35 36 36 36 35 32 31 32 33 32 32 31 30 30 28 29 29 29 30 31 31 33 35 34 32 31 32 33 35 35 32 39 35 35 35 36
31 30 32 33 35 35 35 34 34 37 37 37 35 34 35 32 30 30 32 35 35 33 34 32 29 29 29 28 29 30 30 31 30 31 31 31 31 31 33 32 35 34 35 35 36
34 35 33 34 35 35 34 33 32 35 35 35 36 36 37 38 37 32 32 31 30 27 31 34 34 30 30 30 30 30 32 33 31 30 30 31 31 33 33 35 36 36 37 37 38
36 38 37 36 34 34 33 31 28 30 32 40 41 39 36 38 37 38 35 36 36 36 34 35 37 35 32 33 32 31 31 31 30 29 30 31 34 35 34 36 37 37 38 38 40
34 37 38 37 38 36 34 32 30 31 32 33 39 41 38 36 34 36 38 38 37 38 39 38 37 38 36 36 33 32 32 32 31 29 30 31 33 34 33 34 36 37 39 38 39
33 35 37 38 36 38 35 35 34 35 36 35 36 39 39 38 37 36 36 36 36 37 39 40 40 39 39 37 35 33 33 33 32 31 30 31 35 35 34 36 36 38 40 41 40
29 32 34 35 35 37 37 38 37 39 39 39 39 39 39 38 37 38 36 35 35 36 38 38 39 38 39 37 37 33 34 34 34 32 30 30 34 34 34 37 36 39 40 43 43
23 26 30 33 35 36 38 39 40 40 39 34 37 39 38 37 37 39 38 37 35 35 37 38 38 38 38 37 37 37 35 35 35 34 32 34 34 35 36 36 38 40 42 44 45
22 24 25 29 32 36 40 42 43 43 44 44 41 42 41 41 44 44 44 41 39 36 37 40 41 39 40 40 39 39 39 39 37 36 34 38 36 37 37 40 43 43 44 45 46
22 23 25 27 31 31 35 41 44 46 47 48 46 46 47 51 49 50 46 44 44 42 40 42 39 45 43 43 43 43 43 43 41 39 41 43 41 41 42 43 45 46 48 49 49
26 25 26 27 30 32 33 38 41 46 48 51 52 52 51 51 52 56 54 50 49 49 48 47 42 47 49 48 46 47 48 44 46 44 43 45 43 45 47 47 48 48 51 54 54
31 31 31 31 30 34 36 39 41 43 45 48 54 57 56 55 58 58 57 56 54 55 56 51 52 50 49 52 49 55 49 50 50 49 48 48 47 48 50 51 51 51 53 56 58
36 36 35 35 36 38 39 41 44 47 44 44 47 49 53 57 60 62 61 59 57 58 58 56 56 54 57 54 54 57 55 54 54 53 50 53 55 54 57 58 58 56 59 61 62
41 42 43 42 43 41 43 44 47 49 48 49 50 49 49 51 51 49 49 50 51 52 54 55 53 53 55 59 58 56 59 59 58 57 52 57 58 58 57 58 59 54 58 60 60
48 49 49 48 49 48 47 49 51 49 53 55 55 57 54 53 53 53 52 52 53 55 55 57 54 52 58 56 58 62 58 62 59 62 60 57 59 62 66 65 57 53 60 61 62
53 54 55 54 52 52 53 53 53 54 55 56 58 57 57 63 61 59 57 56 58 57 56 59 58 56 58 58 58 59 63 61 63 65 65 62 63 69 79 65 58 62 65 66 69
59 60 60 60 58 59 58 57 59 58 57 58 59 60 59 56 56 58 59 59 60 62 65 63 65 60 65 64 63 64 67 62 64 64 66 66 71 79 79 69 65 67 70 75 74
63 64 65 66 65 64 62 60 61 60 60 59 60 61 60 61 58 60 61 62 64 63 60 60 62 64 66 62 67 67 70 66 71 72 70 68 73 80 78 80 79 74 74 75 80
65 65 67 69 67 63 61 62 62 61 61 60 61 62 63 63 63 62 61 61 62 61 61 62 62 64 66 65 67 68 69 70 71 73 74 76 72 77 88 86 78 77 78 79 81
62 64 65 64 63 65 64 62 61 61 61 59 60 62 64 65 65 65 65 66 67 68 68 68 69 73 75 76 75 77 79 81 81 81 80 83 78 85 88 88 80 78 83 84 87
60 61 60 58 56 57 61 62 62 60 59 60 63 64 64 66 63 62 64 69 72 73 74 74 75 77 82 83 82 81 82 86 89 91 91 92 90 91 90 95 89 84 84 87 87
44 40 38 38 40 41 46 52 57 61 61 62 64 66 66 69 70 69 71 73 76 78 78 78 80 82 84 84 85 86 86 87 90 93 94 94 93 95 97 97 98 97 95 92 92
22 18 17 20 23 27 31 38 46 53 58 62 63 62 65 67 70 74 75 78 81 83 84 85 85 86 89 86 88 91 91 91 92 95 96 93 94 100 99 102 102 102 100 96 98
19 19 19 19 20 22 25 28 33 39 48 57 66 71 73 75 77 79 79 81 84 86 87 87 89 88 92 90 91 94 95 95 98 103 98 97 98 100 104 108 110 109 105 102 101
Wind_Direction
234 233 233 235 234 233 231 230 232 243 245 249 250 249 245 249 242 247 245 242 246 247 240 234 233 234 242 244 242 243 244 245 250 252 253 248 245 245 248 248 249 248 250 253 256
239 237 239 241 241 240 238 236 237 240 243 246 248 249 246 243 243 245 247 248 248 244 239 239 242 242 243 245 245 245 245 247 248 253 252 248 247 252 250 253 255 252 254 258 258
243 243 240 241 241 239 239 238 241 241 240 240 240 242 243 242 244 244 247 249 248 238 240 238 240 241 242 244 243 242 244 245 247 249 248 246 249 250 253 255 256 255 253 254 255
247 246 244 240 241 240 239 241 243 240 237 236 237 236 234 240 239 243 244 246 241 233 238 238 240 243 246 246 244 243 243 244 243 243 249 249 249 253 257 257 259 256 256 255 255
251 248 245 242 241 242 243 244 247 243 236 229 230 236 225 231 237 237 236 240 235 238 243 245 247 247 252 252 246 241 239 244 245 245 246 248 249 251 251 249 255 256 256 256 256
253 247 246 243 242 243 243 245 247 239 229 216 223 230 232 229 233 243 246 252 251 250 249 247 244 247 251 250 247 245 245 246 247 245 245 245 246 248 248 249 250 252 253 252 253
252 247 244 244 241 241 240 240 240 233 229 218 224 231 233 236 237 243 250 249 252 257 259 254 250 246 252 251 248 249 248 249 246 245 246 246 246 246 249 252 251 251 255 257 258
254 245 243 240 241 240 240 236 233 236 233 231 230 236 244 246 247 246 247 249 253 257 256 256 255 250 250 251 248 249 249 250 248 248 246 246 247 247 249 256 258 258 256 254 256
252 245 244 240 239 239 240 237 232 230 235 233 236 239 242 245 245 246 246 248 252 256 255 256 255 252 248 247 247 248 248 247 249 249 250 253 254 251 250 252 255 257 257 255 253
255 247 243 237 240 239 237 236 236 235 234 236 238 242 241 242 245 248 248 249 253 256 254 254 254 251 248 246 246 248 249 247 248 248 254 255 259 259 258 260 259 260 260 262 259
252 252 248 242 241 241 241 239 238 237 234 242 250 245 244 246 252 253 251 249 253 255 252 252 251 248 247 249 249 247 251 251 251 251 251 254 258 258 258 258 258 258 260 264 265
257 256 255 247 244 244 243 242 240 238 236 240 239 248 250 250 251 256 253 252 254 256 255 252 251 252 249 248 248 251 253 254 256 256 254 256 253 259 260 257 257 256 258 257 262
262 264 263 258 253 249 245 244 243 241 237 238 243 246 247 248 251 250 255 255 253 255 257 254 252 251 250 249 250 254 257 259 262 261 257 254 256 257 257 257 258 258 256 257 257
265 267 265 269 263 258 253 249 247 244 241 238 240 244 246 249 250 255 259 260 256 257 260 259 257 255 252 253 254 258 258 262 263 267 265 263 258 258 258 257 256 257 258 260 259
261 266 270 272 269 262 258 255 251 248 247 246 244 246 245 248 252 255 258 260 260 261 261 261 258 256 256 254 252 252 253 254 257 261 261 262 257 259 259 259 258 256 258 259 261
261 263 266 270 269 270 263 258 253 251 249 247 252 251 251 252 253 255 258 259 258 258 259 258 258 258 256 255 253 254 255 256 259 262 266 264 264 263 259 258 253 251 253 257 262
263 265 267 271 273 271 264 262 257 254 251 248 247 250 251 252 252 255 256 258 258 258 259 259 258 258 260 257 255 256 255 256 257 259 262 262 262 261 262 260 256 256 256 258 257
264 265 267 270 273 273 266 262 259 256 252 249 249 246 248 248 250 251 256 259 259 259 258 260 257 260 261 260 259 256 259 257 258 258 258 262 261 261 260 257 258 255 258 260 260
265 266 269 269 270 268 266 264 261 258 254 250 250 250 251 252 253 255 257 259 260 259 260 260 260 259 262 260 259 260 257 258 256 258 258 260 261 260 259 256 254 261 262 261 261
266 268 268 269 269 268 264 261 258 257 255 253 250 250 250 252 253 255 256 257 258 261 264 263 262 260 262 260 261 262 259 258 260 256 257 257 258 259 260 260 255 253 260 263 263
268 269 269 268 267 265 263 258 256 256 254 252 251 251 250 252 251 252 254 257 259 260 262 264 265 264 264 262 262 259 262 258 259 260 257 254 259 261 262 260 256 254 255 261 265
268 267 266 267 266 264 261 258 256 253 253 250 252 252 252 253 254 254 256 258 260 261 263 265 265 265 262 262 263 265 264 263 261 263 261 255 255 259 259 259 260 261 258 257 259
268 268 268 267 265 263 259 256 253 251 249 250 251 253 253 254 255 257 259 260 261 262 263 263 264 265 264 264 265 265 265 267 265 263 261 261 258 261 262 260 257 260 261 258 258
273 274 272 269 264 259 254 250 248 248 248 247 249 256 254 255 257 259 261 262 261 261 262 263 265 266 268 268 266 264 267 270 270 268 266 265 262 262 261 262 261 257 257 259 260
274 273 270 265 262 257 252 249 246 245 246 247 248 252 256 254 256 256 258 260 262 265 265 266 267 267 268 268 270 270 267 266 266 266 266 267 268 266 266 265 264 261 257 258 259
278 283 276 273 269 263 260 257 254 250 247 247 245 249 255 258 258 257 258 260 263 265 268 269 269 270 270 271 271 271 271 270 270 269 267 267 268 267 266 266 264 262 260 256 257
280 286 286 282 277 274 268 264 263 262 257 254 251 252 252 254 257 260 263 265 265 266 269 271 272 272 273 274 275 274 273 273 273 271 271 270 269 268 268 267 266 264 263 259 257
Height
10855 10858 10860 10863 10866 10868 10871 10873 10876 10878 10880 10883 10885 10889 10892 10894 10896 10898 10900 10903 10906 10908 10910 10911 10913 10915 10916 10917 10917 10917 10917 10916 10917 10920 10922 10922 10922 10922 10923 10925 10928 10930 10932 10933 10935
10850 10853 10855 10858 10861 10863 10865 10868 10870 10873 10875 10878 10880 10883 10885 10888 10890 10892 10895 10897 10900 10902 10904 10906 10907 10909 10910 10911 10912 10912 10912 10911 10912 10914 10917 10917 10917 10916 10919 10921 10922 10925 10926 10927 10928
10845 10847 10849 10852 10854 10857 10860 10861 10864 10866 10869 10872 10874 10877 10880 10881 10884 10886 10889 10891 10894 10896 10898 10900 10901 10903 10904 10905 10905 10907 10906 10906 10907 10909 10911 10912 10913 10912 10913 10918 10919 10919 10920 10920 10922
10839 10841 10843 10846 10848 10850 10853 10855 10857 10859 10862 10866 10868 10871 10874 10876 10879 10881 10883 10885 10887 10889 10892 10894 10895 10897 10898 10899 10899 10901 10901 10900 10902 10903 10905 10907 10908 10909 10910 10917 10911 10914 10913 10914 10915
10833 10835 10837 10839 10842 10844 10846 10848 10850 10852 10855 10859 10863 10866 10869 10871 10874 10875 10877 10878 10881 10883 10886 10888 10889 10891 10893 10894 10895 10895 10896 10895 10897 10899 10901 10901 10902 10904 10905 10908 10906 10907 10906 10906 10907
10827 10828 10830 10832 10835 10837 10839 10841 10843 10844 10848 10854 10858 10860 10862 10865 10868 10869 10870 10872 10875 10877 10879 10880 10882 10885 10887 10888 10889 10889 10890 10891 10892 10893 10895 10896 10897 10897 10897 10897 10898 10898 10898 10899 10899
10819 10821 10823 10825 10827 10830 10833 10835 10837 10840 10843 10848 10851 10853 10856 10859 10861 10862 10864 10867 10868 10869 10871 10873 10876 10878 10881 10881 10883 10885 10884 10885 10886 10887 10888 10889 10889 10889 10891 10890 10890 10891 10891 10892 10892
10811 10813 10815 10818 10820 10824 10827 10829 10832 10835 10838 10842 10845 10848 10850 10852 10854 10856 10857 10859 10860 10861 10863 10865 10868 10871 10874 10875 10878 10879 10879 10879 10880 10881 10881 10882 10881 10883 10884 10883 10882 10883 10883 10884 10884
10803 10806 10808 10810 10813 10816 10820 10823 10826 10830 10833 10836 10839 10841 10844 10846 10847 10849 10851 10852 10853 10854 10855 10857 10860 10862 10866 10868 10870 10871 10873 10873 10874 10874 10876 10876 10875 10877 10878 10876 10875 10874 10873 10874 10875
10796 10799 10801 10804 10807 10810 10813 10816 10820 10823 10826 10829 10832 10835 10836 10838 10841 10842 10844 10845 10846 10847 10847 10849 10851 10854 10857 10860 10862 10865 10864 10865 10866 10869 10871 10871 10869 10870 10871 10869 10868 10866 10864 10862 10865
10791 10792 10794 10797 10800 10803 10806 10809 10813 10816 10819 10822 10825 10827 10830 10832 10834 10835 10836 10836 10838 10838 10839 10842 10843 10846 10849 10852 10853 10855 10857 10858 10860 10863 10865 10864 10863 10862 10863 10863 10860 10858 10856 10853 10853
10787 10787 10789 10791 10794 10796 10798 10801 10804 10807 10810 10813 10816 10819 10822 10824 10826 10825 10827 10829 10830 10832 10832 10834 10835 10840 10841 10843 10845 10847 10848 10849 10853 10856 10858 10855 10857 10855 10855 10854 10851 10851 10849 10846 10844
10782 10783 10784 10785 10787 10788 10790 10792 10795 10797 10801 10805 10808 10810 10814 10814 10815 10816 10818 10820 10822 10823 10824 10824 10830 10830 10832 10835 10836 10838 10840 10841 10845 10846 10848 10846 10850 10849 10846 10846 10843 10840 10838 10837 10836
10776 10777 10778 10779 10780 10781 10783 10784 10785 10787 10790 10795 10797 10800 10803 10802 10805 10806 10808 10810 10811 10813 10812 10815 10821 10819 10823 10826 10829 10829 10830 10833 10832 10835 10837 10837 10841 10839 10836 10836 10835 10833 10830 10826 10826
10769 10770 10771 10772 10773 10774 10775 10776 10776 10777 10779 10785 10785 10786 10790 10793 10794 10795 10796 10797 10800 10800 10800 10807 10805 10809 10811 10814 10818 10811 10821 10819 10820 10822 10823 10825 10826 10826 10823 10823 10822 10823 10820 10816 10814
10760 10761 10762 10763 10764 10765 10765 10766 10767 10767 10771 10773 10773 10776 10778 10780 10781 10783 10784 10784 10787 10787 10786 10792 10792 10799 10797 10800 10803 10802 10807 10808 10808 10810 10815 10812 10809 10812 10808 10806 10805 10808 10803 10804 10806
10749 10751 10752 10752 10753 10753 10754 10754 10755 10756 10761 10763 10762 10764 10766 10767 10769 10770 10772 10772 10774 10775 10775 10777 10783 10785 10785 10785 10789 10792 10791 10795 10797 10797 10802 10797 10796 10794 10792 10788 10789 10799 10796 10796 10795
10737 10738 10740 10741 10740 10740 10740 10742 10742 10746 10746 10748 10749 10751 10753 10753 10756 10758 10761 10761 10762 10762 10764 10763 10768 10773 10768 10772 10773 10774 10780 10777 10785 10780 10784 10786 10784 10779 10771 10768 10779 10784 10780 10780 10780
10725 10725 10726 10728 10728 10726 10726 10726 10730 10729 10731 10733 10735 10738 10739 10740 10742 10745 10748 10749 10748 10748 10750 10750 10752 10758 10756 10755 10758 10760 10760 10765 10765 10767 10768 10771 10767 10759 10736 10763 10774 10770 10765 10763 10758
10710 10710 10710 10711 10712 10711 10711 10712 10712 10714 10716 10717 10720 10721 10726 10725 10728 10730 10733 10734 10734 10734 10733 10737 10734 10744 10738 10740 10742 10742 10739 10748 10748 10750 10751 10754 10748 10731 10732 10749 10755 10755 10749 10742 10744
10695 10694 10693 10693 10695 10694 10694 10695 10696 10698 10700 10702 10704 10707 10710 10711 10714 10716 10720 10720 10719 10718 10719 10719 10718 10721 10714 10728 10718 10725 10720 10733 10725 10727 10732 10739 10729 10716 10724 10722 10724 10732 10735 10733 10728
10678 10679 10675 10674 10675 10675 10677 10678 10679 10681 10684 10687 10690 10692 10694 10696 10697 10701 10704 10704 10703 10704 10705 10702 10703 10701 10700 10703 10703 10704 10706 10705 10706 10707 10709 10712 10716 10704 10687 10696 10715 10718 10719 10719 10711
10661 10659 10656 10655 10656 10656 10657 10660 10662 10665 10669 10672 10675 10677 10678 10680 10682 10685 10686 10686 10687 10687 10687 10688 10687 10681 10680 10681 10686 10685 10683 10681 10683 10685 10687 10683 10694 10678 10674 10674 10692 10696 10690 10691 10690
10644 10642 10638 10635 10634 10635 10636 10641 10646 10649 10654 10657 10660 10662 10664 10665 10667 10669 10668 10668 10668 10668 10668 10668 10667 10665 10657 10657 10663 10666 10663 10657 10654 10654 10657 10655 10662 10660 10660 10647 10661 10670 10672 10668 10670
10628 10624 10622 10620 10619 10620 10622 10625 10629 10634 10638 10641 10644 10645 10647 10648 10648 10650 10650 10649 10648 10648 10648 10647 10646 10643 10639 10639 10638 10635 10636 10636 10630 10625 10627 10632 10634 10630 10629 10635 10635 10635 10639 10645 10646
10620 10617 10614 10612 10612 10612 10613 10615 10617 10620 10624 10626 10628 10630 10630 10630 10630 10631 10630 10629 10627 10626 10625 10623 10622 10620 10613 10620 10615 10608 10607 10606 10604 10597 10598 10610 10609 10598 10602 10597 10598 10600 10606 10618 10615
10614 10612 10610 10608 10608 10608 10607 10608 10608 10609 10610 10611 10612 10613 10612 10612 10611 10610 10609 10608 10605 10603 10602 10601 10598 10598 10588 10593 10589 10580 10578 10578 10573 10558 10578 10581 10581 10576 10568 10560 10558 10561 10573 10580 10582